FUNCUBE-1 (AO-73)

Last updated on Sat Aug 15 2026 00:03:14 GMT+0000 (Coordinated Universal Time)

1 39444U 13066AE 26226.37731554 .00004179 00000+0 25615-3 0 9995 2 39444 97.8329 199.0837 0036066 9.0647 351.1225 15.10200696688447
UTC large
Height (km)
Speed (km/s)
/
Latitude / Longitude
Inclination (degrees)
Orbital Period (minutes)
Azimuth
Elevation
Range (km)
Doppler Factor

Next 0 passes for location: London (51.5072 / 0.1276)

No passes found over London.
FUNCUBE-1 (AO-73)